This demonstration page uses our WeatherBlox Daily Observations layout. Learn more.

Left ArrowRight Arrow

Hourly Observations for July 22, 2016

Temp ( °F °C ) Dew Point ( °F °C ) Humidity (%) Winds ( mph kmh ) Pressure ( in mb ) Visibility ( mi km ) Precip ( " mm )
12:15 am 00:15 Clear 76 24.7 73 22.8 89 89 N N/A 29.88 1012 10 16 N/A
12:35 am 00:35 Clear 76 24.6 73 22.9 90 90 WSW 3 6 29.88 1012 10 16 N/A
12:55 am 00:55 Clear 76 24.2 73 22.6 91 91 N N/A 29.88 1012 10 16 N/A
1:15 am 01:15 Clear 76 24.4 73 22.8 91 91 WSW 3 6 29.88 1012 10 16 N/A
1:35 am 01:35 Clear 74 23.6 72 22.2 92 92 NW 6 9 29.88 1012 7 11 N/A
1:55 am 01:55 Clear 74 23.5 72 22.4 94 94 NNW 5 7 29.88 1012 7 11 N/A
2:15 am 02:15 Clear with Mist and Fog 74 23.5 72 22.3 93 93 NW 5 7 29.85 1011 5 8 N/A
2:35 am 02:35 Clear 74 23.2 72 22 93 93 N N/A 29.85 1011 7 11 N/A
2:55 am 02:55 Clear 74 23.1 72 22 94 94 NW 3 6 29.85 1011 7 11 N/A
3:15 am 03:15 Clear 73 22.6 71 21.5 94 94 N N/A 29.88 1012 7 11 N/A
3:35 am 03:35 Clear 73 22.6 71 21.4 93 93 W 5 7 29.91 1013 7 11 N/A
3:55 am 03:55 Clear with Mist and Fog 73 22.5 71 21.4 94 94 NW 3 6 29.88 1012 5 8 N/A
4:15 am 04:15 Clear with Mist and Fog 73 22.7 71 21.7 94 94 N N/A 29.88 1012 5 8 N/A
4:35 am 04:35 Clear with Mist and Fog 73 22.5 71 21.4 94 94 W 5 7 29.88 1012 5 8 N/A
4:55 am 04:55 Clear with Mist and Fog 73 22.5 71 21.5 94 94 N N/A 29.88 1012 5 8 N/A
5:15 am 05:15 Clear with Mist and Fog 72 22.1 70 21.1 94 94 NW 7 11 29.88 1012 4 6 N/A
5:35 am 05:35 Clear with Mist and Fog 71 21.8 69 20.8 94 94 NW 5 7 29.91 1013 4 6 N/A
5:55 am 05:55 Clear with Mist and Fog 72 22 70 21 94 94 NW 6 9 29.91 1013 4 6 N/A
6:15 am 06:15 Clear with Mist and Fog 71 21.7 69 20.7 94 94 NNW 5 7 29.91 1013 5 8 N/A
6:35 am 06:35 Sunny with Mist and Fog 71 21.5 69 20.5 94 94 NW 6 9 29.91 1013 4 6 N/A
6:55 am 06:55 Sunny with Mist and Fog 71 21.7 69 20.6 94 94 NW 5 7 29.91 1013 5 8 N/A
7:15 am 07:15 Sunny 72 22 69 20.5 91 91 NNW 5 7 29.91 1013 7 11 N/A
7:35 am 07:35 Sunny 73 22.5 69 20.8 90 90 WNW 5 7 29.91 1013 10 16 N/A
7:55 am 07:55 Sunny 74 23.3 71 21.5 90 90 WNW 5 7 29.91 1013 10 16 N/A
8:15 am 08:15 Sunny 75 24.1 72 22 88 88 NNW 5 7 29.88 1012 7 11 N/A
8:35 am 08:35 Sunny 77 25 72 22.1 84 84 N 3 6 29.88 1012 10 16 N/A
8:55 am 08:55 Sunny 79 26 73 23 84 84 N 3 6 29.88 1012 10 16 N/A
9:15 am 09:15 Sunny 82 27.6 75 23.8 80 80 N 6 9 29.85 1011 10 16 N/A
9:35 am 09:35 Sunny 85 29.3 76 24.7 76 76 NNE 6 9 29.85 1011 10 16 N/A
9:55 am 09:55 Sunny 87 30.6 76 24.4 70 70 ENE 6 9 29.83 1010 10 16 N/A
10:15 am 10:15 Sunny 89 31.6 75 23.8 63 63 N N/A 29.83 1010 10 16 N/A
10:35 am 10:35 Sunny 90 32 75 24.1 63 63 ENE 5 7 29.83 1010 10 16 N/A
10:55 am 10:55 Sunny 91 32.7 75 23.9 60 60 ENE 6 9 29.83 1010 10 16 N/A
11:15 am 11:15 Sunny 92 33.3 75 23.7 57 57 E 5 7 29.83 1010 10 16 N/A
11:35 am 11:35 Sunny 92 33.5 74 23.3 55 55 ENE 3 6 29.83 1010 10 16 N/A
11:55 am 11:55 Sunny 92 33.5 75 24.1 58 58 E 6 9 29.83 1010 10 16 N/A
12:15 pm 12:15 Sunny 93 33.8 76 24.5 58 58 ENE 7 11 29.83 1010 10 16 N/A
12:35 pm 12:35 Sunny 94 34.5 76 24.4 56 56 E 8 13 29.85 1011 10 16 N/A
12:55 pm 12:55 Sunny 95 34.8 76 24.5 55 55 E 7 11 29.83 1010 10 16 N/A
1:15 pm 13:15 Sunny 94 34.6 74 23.5 52 52 E 5 7 29.85 1011 10 16 N/A
1:35 pm 13:35 Partly Cloudy 93 33.8 76 24.7 59 59 ESE 6 9 29.85 1011 10 16 N/A
1:55 pm 13:55 Mostly Cloudy 94 34.3 76 24.6 57 57 SSE 8 13 29.85 1011 10 16 N/A
2:15 pm 14:15 Mostly Cloudy 94 34.6 76 24.6 56 56 SE 7 11 29.85 1011 10 16 N/A
2:35 pm 14:35 Partly Cloudy 93 34 74 23.3 54 54 ESE 3 6 29.83 1010 10 16 N/A
2:55 pm 14:55 Partly Cloudy 95 34.8 75 24 53 53 SE 6 9 29.80 1009 10 16 N/A
3:15 pm 15:15 Partly Cloudy with Nearby Thunderstorms 95 34.8 74 23.5 52 52 SSE 6 9 29.80 1009 10 16 N/A
3:35 pm 15:35 Partly Cloudy 95 34.9 75 24 53 53 SE 7 11 29.77 1008 10 16 N/A
3:55 pm 15:55 Partly Cloudy 95 34.9 74 23.3 51 51 SSE 7 11 29.77 1008 10 16 N/A
4:15 pm 16:15 Partly Cloudy 95 35.1 73 22.5 48 48 ESE 6 9 29.77 1008 10 16 N/A
4:35 pm 16:35 Sunny 95 35 74 23.6 52 52 E 9 15 29.77 1008 10 16 N/A
4:55 pm 16:55 Sunny 95 35.1 75 23.8 52 52 E 9 15 29.74 1007 10 16 N/A
5:15 pm 17:15 Sunny 95 34.9 74 23.4 51 51 ESE 9 15 29.77 1008 10 16 N/A
5:35 pm 17:35 Sunny 93 33.9 72 22.2 50 50 SE 17 28 29.80 1009 10 16 N/A
5:55 pm 17:55 Sunny 91 32.9 72 22.4 54 54 SE 14 22 29.80 1009 10 16 N/A
6:15 pm 18:15 Sunny 89 31.5 69 20.8 53 53 SE 13 20 29.80 1009 10 16 N/A
6:35 pm 18:35 Sunny 88 31.3 70 21.2 55 55 SSE 9 15 29.80 1009 10 16 N/A
6:55 pm 18:55 Sunny 88 31.2 70 21.2 55 55 SE 7 11 29.77 1008 10 16 N/A
7:15 pm 19:15 Sunny 87 30.7 70 21.1 57 57 SE 7 11 29.77 1008 10 16 N/A
7:35 pm 19:35 Sunny 87 30.5 71 21.5 59 59 SE 8 13 29.77 1008 10 16 N/A
7:55 pm 19:55 Sunny 85 29.7 72 22 63 63 SSE 7 11 29.80 1009 10 16 N/A
8:15 pm 20:15 Sunny 85 29.5 72 22 64 64 SE 6 9 29.80 1009 10 16 N/A
8:35 pm 20:35 Sunny 85 29.2 73 22.5 67 67 SE 3 6 29.80 1009 10 16 N/A
8:55 pm 20:55 Sunny 84 28.8 73 22.6 69 69 ESE 6 9 29.80 1009 10 16 N/A
9:15 pm 21:15 Clear 82 27.6 74 23.2 77 77 N N/A 29.80 1009 10 16 N/A
9:35 pm 21:35 Clear 80 26.5 74 23.5 84 84 NE 5 7 29.80 1009 10 16 N/A
9:55 pm 21:55 Clear 79 26.1 75 23.7 87 87 N N/A 29.83 1010 10 16 N/A
10:15 pm 22:15 Clear 79 26.1 74 23.2 84 84 ENE 5 7 29.83 1010 10 16 N/A
10:35 pm 22:35 Clear 78 25.7 74 23.3 87 87 E 5 7 29.83 1010 7 11 N/A
10:55 pm 22:55 Clear 78 25.5 73 22.7 85 85 ENE 6 9 29.83 1010 10 16 N/A
11:15 pm 23:15 Clear 78 25.5 72 22.3 83 83 ENE 6 9 29.83 1010 10 16 N/A
11:35 pm 23:35 Clear 78 25.4 72 22.2 83 83 E 5 7 29.83 1010 10 16 N/A
11:55 pm 23:55 Clear 78 25.8 71 21.7 78 78 E 6 9 29.83 1010 10 16 N/A

Powered by AerisWeather